When you browse on this site, cookies collect data to enhance your experience and personalize the content and advertising you see.
Visit our Privacy Policy to learn more. By continuing to use the site, you agree to this use of cookies and data.
  • In United Kingdom
  • List of Countries
  • For 7 days
  • Water Temperature
  • Satellite Maps
  • Weather Map
  • Weather Widgets
  • user-avatar
    Login

    Hourly Weather Camopi

    Today, 20 February, Wednesday

    Time Temperature Precipitation Wind Pressure Humidity
    00:00 +22°C° 0 mm 0 mps 750 mmHg 99%
    01:00 +22°C° 0 mm 0 mps 750 mmHg 99%
    02:00 +22°C° 0 mm 0 mps 749 mmHg 99%
    03:00 +22°C° 0 mm 0 mps 749 mmHg 99%
    04:00 +22°C° 0 mm 0 mps 749 mmHg 99%
    05:00 +22°C° 0 mm 0 mps 749 mmHg 99%
    06:00 +22°C° 0 mm 0 mps 749 mmHg 99%
    07:00 +25°C° 0 mm 1 mps 749 mmHg 97%
    08:00 +26°C° 0 mm 1 mps 749 mmHg 95%
    09:00 +27°C° 0 mm 1 mps 750 mmHg 93%
    10:00 +28°C° 0.6 mm 1 mps 750 mmHg 89%
    11:00 +29°C° 0.6 mm 1 mps 750 mmHg 86%
    12:00 +29°C° 0.6 mm 1 mps 750 mmHg 82%
    13:00 +29°C° 1.5 mm 1 mps 749 mmHg 85%
    14:00 +29°C° 1.5 mm 1 mps 748 mmHg 88%
    15:00 +28°C° 1.5 mm 1 mps 747 mmHg 91%
    16:00 +28°C° 1.1 mm 1 mps 747 mmHg 93%
    17:00 +27°C° 1.1 mm 1 mps 747 mmHg 94%
    18:00 +27°C° 1.1 mm 1 mps 747 mmHg 95%
    19:00 +26°C° 0.3 mm 1 mps 748 mmHg 96%
    20:00 +25°C° 0.3 mm 1 mps 748 mmHg 97%
    21:00 +25°C° 0.3 mm 1 mps 749 mmHg 98%
    22:00 +25°C° 0 mm 1 mps 749 mmHg 99%
    23:00 +24°C° 0 mm 1 mps 750 mmHg 99%

    Tomorrow, 21 February, Thursday

    Time Temperature Precipitation Wind Pressure Humidity
    00:00 +24°C° 0 mm 1 mps 750 mmHg 99%
    01:00 +22°C° 0 mm 0 mps 749 mmHg 99%
    02:00 +22°C° 0 mm 0 mps 749 mmHg 99%
    03:00 +22°C° 0 mm 0 mps 748 mmHg 99%
    04:00 +22°C° 0 mm 0 mps 748 mmHg 99%
    05:00 +22°C° 0 mm 0 mps 748 mmHg 99%
    06:00 +24°C° 0 mm 1 mps 749 mmHg 99%
    07:00 +25°C° 0 mm 1 mps 749 mmHg 97%
    08:00 +26°C° 0 mm 1 mps 750 mmHg 94%
    09:00 +26°C° 0 mm 2 mps 751 mmHg 92%
    10:00 +27°C° 0.4 mm 2 mps 751 mmHg 90%
    11:00 +27°C° 0.4 mm 2 mps 751 mmHg 88%
    12:00 +28°C° 0.4 mm 1 mps 751 mmHg 86%
    13:00 +28°C° 0.2 mm 1 mps 750 mmHg 84%
    14:00 +29°C° 0.2 mm 2 mps 749 mmHg 81%
    15:00 +29°C° 0.2 mm 2 mps 748 mmHg 79%
    16:00 +29°C° 0.1 mm 2 mps 748 mmHg 81%
    17:00 +28°C° 0.1 mm 2 mps 748 mmHg 82%
    18:00 +28°C° 0.1 mm 1 mps 748 mmHg 84%
    19:00 +27°C° 0 mm 1 mps 748 mmHg 86%
    20:00 +26°C° 0 mm 1 mps 749 mmHg 89%
    21:00 +25°C° 0 mm 1 mps 750 mmHg 91%
    22:00 +24°C° 0 mm 1 mps 750 mmHg 93%
    23:00 +24°C° 0 mm 1 mps 750 mmHg 94%

    Day after tomorrow, 22 February, Friday

    Time Temperature Precipitation Wind Pressure Humidity
    00:00 +23°C° 0 mm 1 mps 751 mmHg 96%
    01:00 +21°C° 0 mm 0 mps 750 mmHg 96%
    02:00 +21°C° 0 mm 0 mps 749 mmHg 97%
    03:00 +21°C° 0 mm 0 mps 749 mmHg 98%
    04:00 +21°C° 0 mm 0 mps 749 mmHg 98%
    05:00 +21°C° 0 mm 0 mps 749 mmHg 98%
    06:00 +21°C° 0 mm 0 mps 749 mmHg 99%
    07:00 +24°C° 0 mm 1 mps 750 mmHg 92%
    08:00 +25°C° 0 mm 1 mps 750 mmHg 86%
    09:00 +27°C° 0 mm 1 mps 751 mmHg 80%
    10:00 +28°C° 0 mm 1 mps 751 mmHg 75%
    11:00 +29°C° 0 mm 1 mps 751 mmHg 70%
    12:00 +30°C° 0 mm 1 mps 751 mmHg 64%
    13:00 +30°C° 0.1 mm 2 mps 750 mmHg 64%
    14:00 +31°C° 0.1 mm 2 mps 749 mmHg 65%
    15:00 +31°C° 0.1 mm 2 mps 749 mmHg 65%
    16:00 +30°C° 0.1 mm 2 mps 748 mmHg 70%
    17:00 +29°C° 0.1 mm 1 mps 748 mmHg 75%
    18:00 +28°C° 0.1 mm 1 mps 748 mmHg 80%
    19:00 +27°C° 0.1 mm 1 mps 749 mmHg 85%
    20:00 +26°C° 0.1 mm 1 mps 750 mmHg 90%
    21:00 +25°C° 0.1 mm 1 mps 750 mmHg 95%
    22:00 +24°C° 0 mm 1 mps 750 mmHg 96%
    23:00 +24°C° 0 mm 1 mps 750 mmHg 97%

    23 February, Saturday

    Time Temperature Precipitation Wind Pressure Humidity
    00:00 +23°C° 0 mm 1 mps 751 mmHg 98%
    01:00 +21°C° 0 mm 0 mps 750 mmHg 98%
    02:00 +21°C° 0 mm 0 mps 749 mmHg 98%
    03:00 +21°C° 0 mm 0 mps 749 mmHg 99%
    04:00 +21°C° 0 mm 0 mps 749 mmHg 99%
    05:00 +21°C° 0 mm 0 mps 749 mmHg 99%
    06:00 +21°C° 0 mm 0 mps 749 mmHg 99%
    07:00 +24°C° 0 mm 1 mps 750 mmHg 94%
    08:00 +25°C° 0 mm 1 mps 751 mmHg 90%
    09:00 +26°C° 0 mm 1 mps 751 mmHg 85%
    10:00 +28°C° 0.3 mm 1 mps 751 mmHg 81%
    11:00 +29°C° 0.3 mm 1 mps 751 mmHg 76%
    12:00 +31°C° 0.3 mm 1 mps 751 mmHg 72%
    13:00 +30°C° 1.3 mm 1 mps 750 mmHg 77%
    14:00 +29°C° 1.3 mm 1 mps 749 mmHg 82%
    15:00 +29°C° 1.3 mm 1 mps 748 mmHg 87%
    16:00 +28°C° 1 mm 1 mps 748 mmHg 90%
    17:00 +27°C° 1 mm 1 mps 748 mmHg 92%
    18:00 +26°C° 1 mm 1 mps 748 mmHg 95%
    19:00 +26°C° 0.6 mm 1 mps 748 mmHg 96%
    20:00 +25°C° 0.6 mm 1 mps 749 mmHg 97%
    21:00 +24°C° 0.6 mm 1 mps 749 mmHg 99%
    22:00 +24°C° 0 mm 1 mps 750 mmHg 99%
    23:00 +24°C° 0 mm 1 mps 750 mmHg 99%

    24 February, Sunday

    Time Temperature Precipitation Wind Pressure Humidity
    00:00 +24°C° 0 mm 1 mps 750 mmHg 99%
    01:00 +24°C° 0 mm 1 mps 749 mmHg 99%
    02:00 +22°C° 0 mm 0 mps 749 mmHg 99%
    03:00 +21°C° 0 mm 0 mps 748 mmHg 99%
    04:00 +22°C° 0 mm 0 mps 748 mmHg 99%
    05:00 +24°C° 0 mm 1 mps 748 mmHg 99%
    06:00 +24°C° 0 mm 1 mps 749 mmHg 99%
    07:00 +24°C° 0.1 mm 1 mps 749 mmHg 98%
    08:00 +25°C° 0.1 mm 1 mps 750 mmHg 96%
    09:00 +26°C° 0.1 mm 1 mps 750 mmHg 95%
    10:00 +27°C° 0.7 mm 1 mps 750 mmHg 92%
    11:00 +28°C° 0.7 mm 1 mps 750 mmHg 89%
    12:00 +29°C° 0.7 mm 2 mps 750 mmHg 87%
    13:00 +28°C° 0.9 mm 2 mps 749 mmHg 88%
    14:00 +28°C° 0.9 mm 2 mps 748 mmHg 89%
    15:00 +28°C° 0.9 mm 2 mps 747 mmHg 91%
    16:00 +27°C° 0.6 mm 2 mps 747 mmHg 93%
    17:00 +27°C° 0.6 mm 1 mps 747 mmHg 94%
    18:00 +26°C° 0.6 mm 1 mps 747 mmHg 96%
    19:00 +26°C° 0.6 mm 1 mps 748 mmHg 97%
    20:00 +25°C° 0.6 mm 1 mps 748 mmHg 98%
    21:00 +24°C° 0.6 mm 1 mps 749 mmHg 99%
    22:00 +24°C° 0.1 mm 1 mps 749 mmHg 99%
    23:00 +24°C° 0.1 mm 1 mps 749 mmHg 99%

    25 February, Monday

    Time Temperature Precipitation Wind Pressure Humidity
    00:00 +22°C° 0.1 mm 0 mps 749 mmHg 99%
    01:00 +22°C° 0.1 mm 0 mps 749 mmHg 99%
    02:00 +22°C° 0.1 mm 0 mps 748 mmHg 99%
    03:00 +22°C° 0.1 mm 0 mps 748 mmHg 99%
    04:00 +22°C° 0.1 mm 0 mps 748 mmHg 99%
    05:00 +21°C° 0.1 mm 0 mps 748 mmHg 99%
    06:00 +21°C° 0.1 mm 0 mps 748 mmHg 99%
    07:00 +24°C° 0.1 mm 1 mps 749 mmHg 97%
    08:00 +25°C° 0.1 mm 1 mps 749 mmHg 95%
    09:00 +26°C° 0.1 mm 1 mps 750 mmHg 93%
    10:00 +27°C° 0.7 mm 1 mps 750 mmHg 93%
    11:00 +27°C° 0.7 mm 1 mps 750 mmHg 93%
    12:00 +27°C° 0.7 mm 1 mps 750 mmHg 94%
    13:00 +27°C° 0.5 mm 1 mps 749 mmHg 93%
    14:00 +28°C° 0.5 mm 2 mps 749 mmHg 92%
    15:00 +28°C° 0.5 mm 2 mps 748 mmHg 92%
    16:00 +27°C° 0.5 mm 1 mps 748 mmHg 93%
    17:00 +27°C° 0.5 mm 1 mps 748 mmHg 94%
    18:00 +27°C° 0.5 mm 1 mps 748 mmHg 96%
    19:00 +26°C° 0.2 mm 1 mps 748 mmHg 97%
    20:00 +25°C° 0.2 mm 1 mps 749 mmHg 98%
    21:00 +24°C° 0.2 mm 1 mps 749 mmHg 98%
    22:00 +24°C° 0 mm 1 mps 749 mmHg 99%
    23:00 +24°C° 0 mm 1 mps 749 mmHg 99%
    Show more